Regional Weather Roundup
Issued by NWS New Orleans/Baton Rouge, LA

Home | Current Version | Previous Version | Graphics & Text | Print | Product List | Glossary On
Versions: 1 2 3 4 5 6 7 8 9 10 11 12 13 14 15 16 17 18 19 20 21 22 23 24 25 26 27 28 29 30 31 32 33 34 35 36 37 38 39 40 41 42 43 44 45 46 47 48 49 50
861
ASUS44 KLIX 302001
RWRLIX
NEW ORLEANS REGIONAL WEATHER ROUNDUP
NATIONAL WEATHER SERVICE NEW ORLEANS LA
200 PM CST FRI JAN 30 2015

NOTE: "FAIR" INDICATES FEW OR NO CLOUDS BELOW 12,000 FEET WITH NO
      SIGNIFICANT WEATHER AND/OR OBSTRUCTIONS TO VISIBILITY.
      SKY/WX - SKY CONDITION AND SIGNIFICANT WEATHER.
      TMP - AIR TEMPERATURE.     DP    - DEWPOINT TEMPERATURE.
      RH  - RELATIVE HUMIDITY.   PRES  - PRESSURE.
      HI  - HEAT INDEX.          WCI   - WIND CHILL INDEX.

*  THESE STATIONS ARE NOT NWS OR FAA STATIONS AND ARE NOT UNDER
   NWS QUALITY CONTROL.

LAZ038-040-048-061>063-065>067-069-302100-
SOUTHEAST LOUISIANA

CITY           SKY/WX    TMP DP  RH WIND       PRES   REMARKS
N.O. AUDUBON     N/A     59  40  50 MISG        N/A
N.O. INTL ARPT PTSUNNY   57  37  47 N10       30.34F
N.O. LAKEFRONT PTSUNNY   59  37  44 N7        30.34F
N.O. DOWNTOWN* NOT AVBL
SLIDELL        PTSUNNY   60  30  32 N7        30.32F
BATON ROUGE    MOSUNNY   61  30  31 N10       30.33F
BOOTHVILLE     CLOUDY    53  41  63 N9        30.32F
BELLE CHASSE   CLOUDY    59  35  40 N9        30.32F
BOGALUSA*        N/A     58  31  36 N12       30.34F
GALLIANO*      NOT AVBL
NEW ROADS*     NOT AVBL
GONZALES*      NOT AVBL
HAMMOND*       NOT AVBL
HOUMA*         NOT AVBL
PORT FOURCHON* CLEAR     55  43  62 NE15G21   30.35S

$$

MSZ070-080>082-302100-
SOUTHERN MISSISSIPPI

CITY           SKY/WX    TMP DP  RH WIND       PRES   REMARKS
MCCOMB         PTSUNNY   58  29  33 N8        30.34F
GULFPORT       CLOUDY    59  30  33 VRB7      30.31F
BILOXI         CLOUDY    58  32  37 N7        30.30F
PASCAGOULA     PTSUNNY   60  32  34 N8        30.30F

$$

COASTAL OBSERVATIONS
LAKE AND NEARSHORE STATIONS

STATION/POSITION TIME  TEMP    WIND        PRES    WAVE
                       AIR SEA DIR/SP/G            HT/PER
                 (UTC) (F)     (DEG/KT/KT) (MB)    (FT/S)
PASCAGOULA       1918   56     360/  7/ 12 1026.0
WAVELAND YACHT   1918   54      10/ 12/ 13 1026.0
GRAND ISLE       1918   55 62   50/ 10/ 15 1027.4
SOUTHWEST PASS   1918   59 47   30/ 18/ 19 1026.8
NEW CANAL        1918   52 55  360/  8/  9 1027.9
SHELL BEACH      1918   52 57   20/  7/  9 1027.2

OFFSHORE STATIONS

STATION/POSITION TIME  TEMP    WIND        PRES    WAVE
                       AIR SEA DIR/SP/G            HT/PER
                 (UTC) (F)     (DEG/KT/KT) (MB)    (FT/S)
64 S DAUPHIN ISL 1932   54 69   20/ 17/ 21 1026.0    6/ 6

$$




USA.gov is the U.S. government's official web portal to all federal, state and local government web resources and services.